Regional Weather Roundup
Issued by NWS

Home | Current Version | Previous Version | Text Only | Print | Product List | Glossary Off
Versions: 1 2 3 4 5 6 7 8 9 10 11 12 13 14 15 16 17 18 19 20 21 22 23 24 25 26 27 28 29 30 31 32 33 34 35 36 37 38 39 40 41 42 43 44 45 46 47 48 49 50

725
ASUS43 KBIS 231510
RWRND

NORTH DAKOTA REGIONAL WEATHER ROUNDUP
NATIONAL WEATHER SERVICE BISMARCK ND
1000 AM CDT MON APR 23 2018

NOTE: "FAIR" INDICATES FEW OR NO CLOUDS BELOW 12,000 FEET WITH NO
SIGNIFICANT WEATHER AND/OR OBSTRUCTIONS TO VISIBILITY.


NDZ001>003-009>011-017-231600-
NORTHWEST NORTH DAKOTA

CITY           SKY/WX    TMP DP  RH WIND       PRES   REMARKS
WILLISTON      CLOUDY    44  34  67 N13       30.29R
MINOT          CLOUDY    50  34  54 N13       30.25R
MINOT AFB      CLOUDY    47  35  63 N12       30.24R
$$

NDZ018>021-031>035-040>046-231600-
SOUTHWEST NORTH DAKOTA

CITY           SKY/WX    TMP DP  RH WIND       PRES   REMARKS
BISMARCK       SUNNY     56  31  38 NE16      30.21R
DICKINSON      CLOUDY    47  28  47 NE15      30.20R
GARRISON         N/A     46  33  60 NE14G21   30.23R
HETTINGER ARPT MOSUNNY   52  35  52 NE24      30.16S
$$

NDZ004>008-012>016-024-026-027-054-231600-
NORTHEAST NORTH DAKOTA

CITY           SKY/WX    TMP DP  RH WIND       PRES   REMARKS
GRAND FORKS    FAIR      53  40  61 N15       30.19S
GRND FRKS AFB  FAIR      55  35  47 N16       30.19S
DEVILS LAKE    FAIR      49  36  61 N15       30.22S
$$

NDZ022-023-025-028>030-036>039-047>053-231600-
SOUTHEAST NORTH DAKOTA

CITY           SKY/WX    TMP DP  RH WIND       PRES   REMARKS
FARGO          FAIR      54  40  59 SW8       30.19S
JAMESTOWN      SUNNY     54  37  52 NE12      30.19R
$$





USA.gov is the U.S. government's official web portal to all federal, state and local government web resources and services.